Weather History for BGKK - April, 2014

Change the Weather History Date:

Saturday, April 12, 2014

  Actual Average Record
Temperature  
Mean Temperature 24 °F -  
Max Temperature 28 °F 30 °F 35 °F (1997)
Min Temperature 21 °F 25 °F 10 °F (2013)
Degree Days  
Heating Degree Days 40    
Moisture  
Dew Point 21 °F    
Average Humidity 83    
Maximum Humidity 93    
Minimum Humidity 69    
Precipitation  
Precipitation 0.00 in - - ()
Sea Level Pressure  
Sea Level Pressure 29.52 in    
Wind  
Wind Speed 8 mph ()    
Max Wind Speed 23 mph    
Max Gust Speed -    
Visibility 7.5 miles    
Events Snow    
Averages and records for this station are not official NWS values.
T = Trace of Precipitation, MM = Missing Value Source: Averaged Metar Reports

Daily Weather History Graph

Daily Weather History Graph

Search for Another Location

Airport or City:

Trip Planner

Search our weather history database for the weather conditions in past years. The results will help you decide how hot, cold, wet, or windy it might be!

Date:

Astronomy

Apr. 12, 2014 Rise Set
Actual Time 5:02 AM WGST 7:58 PM WGST
Civil Twilight 4:04 AM WGST 8:57 PM WGST
Nautical Twilight 2:39 AM WGST 10:24 PM WGST
Astronomical Twilight 1:01 AM WGST Sun does not set
Moon 4:34 PM WGST (4/12) 4:28 AM WGST (4/12)
Length of Visible Light 16h 52m
Length of Day
14h 56m
Waxing Gibbous, 92% of the Moon is Illuminated
Apr 12
Waxing Gibbous
Apr 15
Full
Apr 22
Last Quarter
Apr 29
New
May 7
First Quarter

Hourly Weather History & Observations

Time (WGST) Temp. Windchill Dew Point Humidity Pressure Visibility Wind Dir Wind Speed Gust Speed Precip Events Conditions
12:00 AM - - - % 29.49 in 22 mi West 1.2 mph - -   Overcast
12:20 AM - - - N/A% 29.47 in 6.2 mi West 2.3 mph - N/A   Overcast
12:50 AM - - - N/A% 29.47 in 6.2 mi SW 3.5 mph - N/A   Overcast
1:00 AM - - - % 29.49 in 22 mi WSW 3.5 mph - -   Overcast
1:20 AM - - - N/A% 29.47 in 6.2 mi West 2.3 mph - N/A   Overcast
1:50 AM - - - N/A% 29.47 in 6.2 mi WSW 5.8 mph - N/A   Overcast
2:00 AM - - - % 29.49 in 22 mi WSW 5.8 mph - -   Overcast
2:20 AM - - - N/A% 29.47 in 6.2 mi SSW 8.1 mph - N/A   Overcast
2:50 AM - - - N/A% 29.47 in 6.2 mi SSW 10.4 mph - N/A   Unknown
3:00 AM - - - % 29.50 in 22 mi SSW 9.2 mph - - Snow Light Snow Showers
3:20 AM - - - N/A% 29.47 in 6.2 mi West 3.5 mph - N/A   Overcast
3:50 AM - - - N/A% 29.50 in 6.2 mi WSW 4.6 mph - N/A   Overcast
4:00 AM - - - % 29.50 in 22 mi WSW 4.6 mph - - Snow Snow
4:20 AM - - - N/A% 29.47 in 6.2 mi West 1.2 mph - N/A   Unknown
4:50 AM - - - N/A% 29.50 in 6.2 mi WNW 2.3 mph - N/A   Unknown
5:00 AM - - - % 29.50 in 22 mi North 2.3 mph - - Snow Light Snow Showers
5:20 AM - - - N/A% 29.50 in 6.2 mi Variable 1.2 mph - N/A   Unknown
5:50 AM 21.2 °F - 14.0 °F 74% 29.50 in 6.2 mi East 1.2 mph - N/A   Mostly Cloudy
6:00 AM - - - % 29.51 in 22 mi East 2.3 mph - - Snow Snow
6:50 AM 23.0 °F 18.4 °F 17.6 °F 80% 29.50 in 6.2 mi Variable 3.5 mph - N/A   Mostly Cloudy
7:00 AM - - - % 29.51 in 16 mi South 2.3 mph - - Snow Light Snow Showers
7:50 AM 24.8 °F 16.1 °F 23.0 °F 93% 29.50 in 6.2 mi East 8.1 mph - N/A Snow Light Snow
8:00 AM - - - % 29.51 in 14 mi East 12.7 mph - - Snow Light Snow Showers
8:50 AM 24.8 °F 12.9 °F 23.0 °F 93% 29.50 in 6.2 mi East 13.8 mph - N/A   Mostly Cloudy
9:00 AM - - - % 29.51 in 19 mi East 12.7 mph - - Snow Light Snow Showers
9:50 AM 26.6 °F 14.7 °F 23.0 °F 86% 29.50 in 6.2 mi East 15.0 mph - N/A   Mostly Cloudy
10:00 AM - - - % 29.52 in 19 mi East 13.8 mph - - Snow Snow
10:50 AM 26.6 °F 12.7 °F 24.8 °F 93% 29.50 in 6.2 mi East 20.7 mph - N/A   Mostly Cloudy
11:00 AM - - - % 29.52 in 22 mi East 20.7 mph - -   Clear
11:50 AM 26.6 °F 12.4 °F 23.0 °F 86% 29.50 in 6.2 mi East 21.9 mph - N/A   Mostly Cloudy
12:00 PM - - - % 29.52 in 22 mi East 20.7 mph - -   Clear
12:50 PM 26.6 °F 12.4 °F 21.2 °F 80% 29.53 in 6.2 mi ENE 21.9 mph - N/A   Mostly Cloudy
1:00 PM - - - % 29.54 in 22 mi East 23.0 mph - - Snow Light Snow Showers
1:50 PM 26.6 °F 13.8 °F 21.2 °F 80% 29.53 in 6.2 mi East 17.3 mph - N/A   Mostly Cloudy
2:00 PM - - - % 29.54 in 22 mi East 19.6 mph - - Snow Light Snow Showers
2:50 PM 26.6 °F 13.1 °F 21.2 °F 80% 29.53 in 6.2 mi ENE 19.6 mph - N/A   Mostly Cloudy
3:00 PM - - - % 29.54 in 22 mi East 18.4 mph - - Snow Light Snow Showers
3:50 PM 28.4 °F 16.2 °F 19.4 °F 69% 29.53 in 6.2 mi East 17.3 mph - N/A   Mostly Cloudy
4:00 PM - - - % 29.55 in 17 mi East 18.4 mph - - Snow Light Snow Showers
4:50 PM 28.4 °F 15.8 °F 23.0 °F 80% 29.53 in 6.2 mi East 18.4 mph - N/A   Mostly Cloudy
5:00 PM - - - % 29.55 in 22 mi East 17.3 mph - - Snow Snow
5:20 PM - - - N/A% 29.53 in 6.2 mi East 18.4 mph - N/A   Mostly Cloudy
5:50 PM - - - N/A% 29.53 in 6.2 mi East 13.8 mph - N/A   Mostly Cloudy
6:00 PM - - - % 29.55 in 22 mi East 11.5 mph - -   Clear
6:20 PM - - - N/A% 29.53 in 6.2 mi East 13.8 mph - N/A   Overcast
6:50 PM - - - N/A% 29.53 in 6.2 mi East 15.0 mph - N/A   Overcast
7:00 PM - - - % 29.56 in 22 mi East 13.8 mph - -   Clear
7:20 PM - - - N/A% 29.53 in 6.2 mi East 15.0 mph - N/A   Overcast
7:50 PM - - - N/A% 29.56 in 6.2 mi NE 8.1 mph - N/A   Unknown
8:00 PM - - - % 29.57 in 22 mi ENE 8.1 mph - - Snow Light Snow
8:20 PM - - - N/A% 29.56 in 6.2 mi ENE 8.1 mph - N/A   Unknown
8:50 PM - - - N/A% 29.56 in 6.2 mi NE 10.4 mph - N/A   Overcast
9:00 PM - - - % 29.57 in 22 mi NE 9.2 mph - - Snow Snow
9:20 PM - - - N/A% 29.56 in 6.2 mi NE 10.4 mph - N/A   Overcast
9:50 PM - - - N/A% 29.56 in 6.2 mi ENE 11.5 mph - N/A   Overcast
10:00 PM - - - % 29.58 in 22 mi ENE 10.4 mph - -   Clear
10:20 PM - - - N/A% 29.56 in 6.2 mi ENE 9.2 mph - N/A   Overcast
10:50 PM - - - N/A% 29.56 in 6.2 mi ENE 11.5 mph - N/A   Overcast
11:00 PM - - - % 29.57 in 22 mi NE 10.4 mph - -   Overcast
11:20 PM - - - N/A% 29.56 in 6.2 mi ENE 9.2 mph - N/A   Overcast
11:50 PM - - - N/A% 29.56 in 6.2 mi ENE 10.4 mph - N/A   Overcast